Retour au catalogue

O3B MPOWER F8

ActifCommunicationsMEO
NORAD 62363·PAYLOAD·🇱🇺 Luxembourg

Lancé Dec 17, 2024 depuis Cape Canaveral Space Force Station

Loading…

Prochains Passages (prochaines 24 heures)

TLE

FraisSource: CelesTrak SupGP

Époque: Sep 14, 2026, 18:00 UTC

1 62363C 24244B   26257.75000000  .00000000  00000+0  00000+0 0  2575
2 62363   0.0322  36.9523 0005232 126.6690 118.0397  5.00114833    14

Suivez O3B MPOWER F8 en temps réel avec AllMySat

Download on the App Store